Regional Weather Roundup
Issued by NWS

Home | Current Version | Previous Version | Graphics & Text | Print | Product List | Glossary On
Versions: 1 2 3 4 5 6 7 8 9 10 11 12 13 14 15 16 17 18 19 20 21 22 23 24 25 26 27 28 29 30 31 32 33 34 35 36 37 38 39 40 41 42 43 44 45 46 47 48 49 50
000
ASUS43 KFSD 242110
RWRSD

WEATHER ROUNDUP FOR SOUTH DAKOTA
NATIONAL WEATHER SERVICE SIOUX FALLS SD
400 PM CDT TUE MAY 24 2016

NOTE: "FAIR" INDICATES FEW OR NO CLOUDS BELOW 12,000 FEET WITH NO
SIGNIFICANT WEATHER AND/OR OBSTRUCTIONS TO VISIBILITY.


SDZ001>005-009-010-012>017-242200-
NORTHWEST AND NORTH CENTRAL SOUTH DAKOTA

CITY           SKY/WX    TMP DP  RH WIND       PRES   REMARKS
BUFFALO          N/A     74  41  30 SE20      29.80F
FAITH            N/A     74  43  32 SE13      29.87F
MOBRIDGE       SUNNY     79  48  33 CALM      29.85F
$$

SDZ012>016-024>037-041>051-057-063-072>074-242200-
SOUTHWEST AND SOUTH CENTRAL SOUTH DAKOTA

CITY           SKY/WX    TMP DP  RH WIND       PRES   REMARKS
RAPID CTY ARPT LGT RAIN  70  47  43 E13       29.86F
PIERRE         SUNNY     80  33  18 CALM      29.84F
CUSTER         SUNNY     61  42  49 E9G17     29.94F
ELLSWORTH AFB  CLOUDY    65  47  52 SE8       29.87
PHILIP         CLOUDY    78  50  37 NE7       29.84F
PINE RIDGE     MOSUNNY   78  42  27 S12G23    29.84F
WINNER         FAIR      82  46  28 S3        29.85F
$$

SDZ004>011-016>023-039-040-242200-
NORTHEAST SOUTH DAKOTA

CITY           SKY/WX    TMP DP  RH WIND       PRES   REMARKS
ABERDEEN       SUNNY     84  46  26 W9        29.84S
WATERTOWN      SUNNY     82  52  35 VRB6      29.87F
BROOKINGS      SUNNY     83  45  26 W10       29.86F
SISSETON         N/A     85  46  25 W9        29.82F
$$

SDZ017-020-022-023-036>040-048>070-242200-
SOUTHEAST SOUTH DAKOTA

CITY           SKY/WX    TMP DP  RH WIND       PRES   REMARKS
SIOUX FALLS    MOSUNNY   83  51  33 S3        29.87S
HURON          SUNNY     83  46  27 MISG      29.84S
CHAMBERLAIN    SUNNY     82  47  29 SE5       29.85F
MITCHELL       SUNNY     84  46  26 S6        29.85S
YANKTON        SUNNY     82  52  34 CALM      29.84S
$$

ABBREVIATIONS USED IN REMARKS
   TC - TEMPERATURE IN CELSIUS
  WCI - WIND CHILL INDEX
   HX - HEAT INDEX
  VSB - VISIBILITY





USA.gov is the U.S. government's official web portal to all federal, state and local government web resources and services.